Location: Asheville, NC
(35.6000°N, 82.5500°W)
Time: 16:54:03
(UTC-05:00)

NUDT-PHONESAT - Pass Details

Date: 10 January 2018
Orbit: 494 x 513 km, 97.4° (Epoch: 23 January)

Event Time Altitude Azimuth Distance (km) Brightness Sun altitude
Rises 19:09:19 0° 210° (SSW) 2,609 ? -18.6°
Reaches altitude 10° 19:12:25 10° 239° (WSW) 1,730 ? -19.2°
Maximum altitude 19:14:10 13° 267° (W) 1,556 ? -19.6°
Drops below altitude 10° 19:15:56 10° 295° (WNW) 1,736 ? -19.9°
Sets 19:19:04 0° 324° (NW) 2,627 ? -20.6°
